Regional Weather Roundup
Issued by NWS

Home | Current Version | Previous Version | Graphics & Text | Print | Product List | Glossary On
Versions: 1 2 3 4 5 6 7 8 9 10 11 12 13 14 15 16 17 18 19 20 21 22 23 24 25 26 27 28 29 30 31 32 33 34 35 36 37 38 39 40 41 42 43 44 45 46 47 48 49 50
000
ASUS43 KMPX 291610
RWRMN
WEATHER ROUNDUP FOR MINNESOTA
NATIONAL WEATHER SERVICE TWIN CITIES/CHANHASSEN MN
1100 AM CDT WED JUL 29 2015


NOTE: "FAIR" INDICATES FEW OR NO CLOUDS BELOW 12,000 FEET WITH NO
SIGNIFICANT WEATHER AND/OR OBSTRUCTIONS TO VISIBILITY. N/A MEANS
CURRENT SKY AND/OR WEATHER CONDITIONS ARE NOT AVAILABLE.

MNZ060>063-068>070-291700-
   Twin Cities Metro

CITY           SKY/WX    TMP DP  RH WIND       PRES   REMARKS
TWIN CITIES    SUNNY     77  52  41 SW23G32   29.94S
ST PAUL        SUNNY     76  53  44 W24G33    29.93S
CRYSTAL        SUNNY     77  52  41 W22G30    29.92R
LAKEVILLE      SUNNY     73  55  53 W13G25    29.97S
EDEN PRAIRIE   SUNNY     76  54  46 W15G25    29.94F
SOUTH ST PAUL  SUNNY     76  51  40 W18G25    29.94R
LAKE ELMO      FAIR      73  54  49 W21G35    29.94R
$$
MNZ001>005-007-008-013>017-022>024-027-028-291700-
   Northwest Minnesota

CITY           SKY/WX    TMP DP  RH WIND       PRES   REMARKS
BEMIDJI        CLOUDY    63  55  76 W18G24    29.75R
HALLOCK        MOSUNNY   72  55  56 W25G36    29.65R
ROSEAU         CLOUDY    64  57  77 W20G30    29.61R
WARROAD        CLOUDY    64  57  77 W20G30    29.59R
THIEF RVR FALL CLOUDY   N/A N/A N/A W16G30    29.71R
CROOKSTON      PTSUNNY   72  55  56 NW24G32   29.75R
FOSSTON        CLOUDY    64  55  72 W18G24    29.77R
DETROIT LAKES  SUNNY     72  52  49 W25G37    29.85R
MOORHEAD       SUNNY     75  55  50 W23       29.86R
PARK RAPIDS    MOSUNNY   72  53  51 W32G44    29.80S
MAHNOMEN       FAIR      70  55  59 W26G39    29.80R
$$
MNZ006-009>011-018-025>026-291700-
   North Central Minnesota

CITY           SKY/WX    TMP DP  RH WIND       PRES   REMARKS
BAUDETTE       CLOUDY    62  58  86 W15G29    29.60R FOG
FLAG ISLAND    CLOUDY    64  57  77 W22G31    29.52R
INTL FALLS     LGT RAIN  63  57  81 W16G23    29.59R
WASKISH        LGT RAIN  64  59  82 SW22G32   29.66R
BIG FORK       MOSUNNY   64  55  72 SW17G24   29.68R
LONGVILLE      CLOUDY    64  54  68 W10G24    29.78R
GRAND RAPIDS   CLOUDY    64  52  63 W14G26    29.75R
CRANE LAKE     CLOUDY    63  55  77 SW10G20   29.63R
ORR            CLOUDY    63  54  72 SW12G23   29.63S
COOK           CLOUDY    64  55  72 SW14      29.67S
WALKER         CLOUDY    64  53  68 W20G30    29.77R
$$
MNZ012-019>021-037-291700-
   Northeast Minnesota

CITY           SKY/WX    TMP DP  RH WIND       PRES   REMARKS
DULUTH         CLOUDY    67  52  58 W26G38    29.75R
ELY            CLOUDY    64  54  68 SW17G23   29.66R
HIBBING        CLOUDY    64  54  69 SW14G21   29.72R
EVELETH        CLOUDY    63  52  67 SW17G25   29.72R
DULUTH HARBOR  CLOUDY    72  55  56 W23G40    29.75R
TWO HARBORS    CLOUDY    70  57  64 W17       29.70R
SILVER BAY     CLOUDY    70  54  56 SW8G21    29.68R
GRAND MARAIS     N/A     56  50  80 W8G17     29.64S
G MARAIS ARPRT MOSUNNY   64  50  59 SW10G21   29.67R
$$
MNZ029>031-032-039>041-046>048-054>057-064-291700-
   West Central Minnesota

CITY           SKY/WX    TMP DP  RH WIND       PRES   REMARKS
FERGUS FALLS   SUNNY     73  55  53 W26G33    29.89S
WHEATON        SUNNY     72  54  53 W21G26    29.96S
MORRIS         SUNNY     75  55  50 W18G30    29.94S
ALEXANDRIA     SUNNY     73  52  47 W22G37    29.92S
ELBOW LAKE     FAIR      72  55  56 W23G31    29.93R
WADENA         SUNNY     72  54  53 W22G33    29.85R
GLENWOOD       SUNNY     73  52  46 W23G37    29.94R
APPLETON       SUNNY     77  54  44 W16       29.97S
BENSON         SUNNY     75  54  46 NW18      29.96S
ORTONVILLE     SUNNY     75  52  43 W17G25    29.98S
MADISON        SUNNY     73  54  49 W15G21    30.00R
WILLMAR        FAIR      73  55  53 W22G29    29.98S
$$
MNZ033>034-036-042>043-049>051-058-059-291700-
   Central Minnesota

CITY           SKY/WX    TMP DP  RH WIND       PRES   REMARKS
ST CLOUD       SUNNY     74  53  48 W25G37    29.90R
SAUK CENTRE    FAIR      72  53  52 W22G36    29.91S
PAYNESVILLE    SUNNY     72  53  51 SW20G30   29.94S
AITKIN         CLOUDY    70  55  60 W14G23    29.80S
PINE RIVER     CLOUDY    68  55  64 W10G25    29.84R
BRAINERD       PTSUNNY   70  53  54 W22G37    29.83R
STAPLES        MOSUNNY   72  54  53 W23G33    29.85S
LONG PRAIRIE   FAIR      70  52  52 W21G31    29.91R
LITTLE FALLS   SUNNY     72  50  46 W23G31    29.88S
LITCHFIELD     SUNNY     75  54  46 W16G25    29.96S
BUFFALO        SUNNY     73  53  49 W13G23    29.94S
MAPLE LAKE     SUNNY     73  55  53 W15G25    29.94S
$$
MNZ037-044-045-052-053-291700-
   East Central Minnesota

CITY           SKY/WX    TMP DP  RH WIND       PRES   REMARKS
PRINCETON      SUNNY     75  54  46 W25G36    29.89R
MORA           MOSUNNY   70  52  52 W17G31    29.87R
CAMBRIDGE      SUNNY     75  55  50 W16G26    29.87R
RUSH CITY      MOSUNNY   73  54  51 W20G29    29.87S
MOOSE LAKE     CLOUDY    66  52  59 W17G26    29.79S
HINCKLEY       CLOUDY    72  55  56 W20G35    29.84S
CLOQUET        CLOUDY    66  50  55 SW14G26   29.77R
MCGREGOR       CLOUDY    66  54  63 W14G28    29.80S
$$
MNZ071>073-080-081-089-090-097-098-291700-
   Southwest Minnesota

CITY           SKY/WX    TMP DP  RH WIND       PRES   REMARKS
MONTEVIDEO     SUNNY     77  55  47 NW14G20   30.01R
GRANITE FALLS  SUNNY     74  56  52 W15G23    30.03S
CANBY          SUNNY     74  50  42 W21G29    30.04R
MARSHALL       SUNNY     75  52  43 W23G30    30.05S
REDWOOD FALLS  SUNNY     76  53  44 W18G30    30.00F
OLIVIA         SUNNY     72  54  53 W22G29    29.99S
PIPESTONE      SUNNY     72  55  56 W14       30.11R
WINDOM         SUNNY     73  55  53 SW14G22   30.08S
WORTHINGTON    SUNNY     72  54  53 W16       30.12R
JACKSON        SUNNY     73  55  53 W16G22    30.10S
TRACY          SUNNY     73  57  56 W10G18    30.05S
SLAYTON        SUNNY     72  54  53 SW16      30.10S
$$
MNZ065>067-074>077-082>085-091>093-291700-
   South Central Minnesota

CITY           SKY/WX    TMP DP  RH WIND       PRES   REMARKS
MANKATO        SUNNY     75  55  50 W20G28    30.02S
NEW ULM        SUNNY     75  54  46 W18G26    30.02R
ST JAMES       SUNNY     77  57  50 SW14      30.06S
FAIRMONT       SUNNY     75  52  43 W15       30.08R
GLENCOE        SUNNY     75  59  57 SW12G23   29.98S
FARIBAULT      SUNNY     75  55  50 SW18      30.01S
OWATONNA       SUNNY     75  55  50 W17       30.02S
WASECA         SUNNY     73  55  53 W16G22    30.05R
ALBERT LEA     SUNNY     75  54  46 W12G18    30.05S
$$
MNZ078>079-086>088-094>096-291700-
   Southeast Minnesota

CITY           SKY/WX    TMP DP  RH WIND       PRES   REMARKS
ROCHESTER      SUNNY     73  56  54 W22G30    30.02S
RED WING       SUNNY     81  52  36 W14       29.94S
STANTON        SUNNY     76  53  44 W13G23    29.97S
DODGE CENTER   SUNNY     73  54  49 W16G25    30.02S
WINONA         SUNNY     77  50  38 NW10G23   29.96F
AUSTIN         SUNNY     75  52  43 W18G25    30.04S
PRESTON        SUNNY     74  53  48 W22G28    30.02S
$$
ABBREVIATIONS USED IN REMARKS
   TC - TEMPERATURES IN CELSIUS
  WCI - WIND CHILL INDEX
   HX - HEAT INDEX
  VSB - VISIBILITY
$$


USA.gov is the U.S. government's official web portal to all federal, state and local government web resources and services.